This is the latest recevied weather packets stored in our database for station/object KC1BRV. If no packets are shown the sender has not sent any weather packets the latest 10 day(s).
| Time | Temp. | Humidity | Pressure | Rain* | Wind** | Luminosity | Snow |
|---|---|---|---|---|---|---|---|
| 1777482104 | 16.11° C | 53% | 1015.8 hPa | 0 mm | - | 805 W/m² | - |
| 1777481802 | 16.11° C | 55% | 1015.8 hPa | 0 mm | - | 751 W/m² | - |
| 1777481499 | 16.11° C | 55% | 1015.9 hPa | 0 mm | - | 596 W/m² | - |
| 1777481195 | 16.11° C | 55% | 1015.9 hPa | 0 mm | - | 762 W/m² | - |
| 1777480892 | 15.56° C | 56% | 1016.1 hPa | 0 mm | - | 829 W/m² | - |
| 1777480589 | 16.11° C | 57% | 1015.8 hPa | 0 mm | - | 615 W/m² | - |
| 1777480286 | 15.56° C | 59% | 1015.7 hPa | 0 mm | - | 744 W/m² | - |
| 1777479982 | 15° C | 60% | 1015.7 hPa | 0 mm | - | 562 W/m² | - |
| 1777479679 | 15° C | 60% | 1015.9 hPa | 0 mm | - | 694 W/m² | - |
| 1777479377 | 14.44° C | 64% | 1015.8 hPa | 0 mm | - | 715 W/m² | - |
| 1777479073 | 14.44° C | 62% | 1015.7 hPa | 0 mm | - | 757 W/m² | - |
| 1777478770 | 15° C | 61% | 1015.9 hPa | 0 mm | - | 673 W/m² | - |
| 1777478466 | 15° C | 61% | 1015.9 hPa | 0 mm | - | 755 W/m² | - |
| 1777478163 | 14.44° C | 61% | 1015.9 hPa | 0 mm | - | 749 W/m² | - |
| 1777477859 | 14.44° C | 64% | 1016.1 hPa | 0 mm | - | 743 W/m² | - |
| 1777477554 | 14.44° C | 64% | 1016 hPa | 0 mm | - | 653 W/m² | - |
| 1777477251 | 13.89° C | 64% | 1016.3 hPa | 0 mm | - | 729 W/m² | - |
| 1777476948 | 13.89° C | 63% | 1016.1 hPa | 0 mm | - | 783 W/m² | - |
| 1777476646 | 13.89° C | 65% | 1016.2 hPa | 0 mm | - | 733 W/m² | - |
| 1777476342 | 13.89° C | 65% | 1016.2 hPa | 0 mm | - | 241 W/m² | - |
| 1777476038 | 13.89° C | 65% | 1016.2 hPa | 0 mm | - | 663 W/m² | - |
| 1777475734 | 13.89° C | 64% | 1016.1 hPa | 0 mm | - | 727 W/m² | - |
| 1777475431 | 13.89° C | 63% | 1016.3 hPa | 0 mm | - | 353 W/m² | - |
| 1777475126 | 13.89° C | 63% | 1016.5 hPa | 0 mm | - | 685 W/m² | - |
| 1777474823 | 13.89° C | 65% | 1016.8 hPa | 0 mm | - | 719 W/m² | - |
* Rain latest hour (hover to see other rain measurements)
** Current wind speed in m/s (hover to see current wind gust speed)